KB0DHM Weather Reports


time (UTC)temp
C
wind
direction
speed
KPH
gust
KPH
rain 1hr
cm
rain 24hr
cm
rain mn
cm
humidity
%
barometer
mb
20260906191552 26 63 0.0 3.2 0.00 0.00 0.00 69 1017.3
20260906190035 26 63 0.0 0.0 0.00 0.00 0.00 69 1017.5
20260906184534 26 63 0.0 0.0 0.00 0.00 0.00 71 1017.5
20260906183016 26 63 0.0 0.0 0.00 0.00 0.00 71 1017.6
20260906181518 26 63 0.0 0.0 0.00 0.00 0.00 70 1017.7
20260906180055 27 63 0.0 1.6 0.00 0.00 0.00 68 1017.5
20260906174554 27 63 0.0 0.0 0.00 0.00 0.00 69 1017.6
20260906173036 27 63 0.0 0.0 0.00 0.00 0.00 68 1017.6
20260906171531 26 63 0.0 0.0 0.00 0.00 0.00 70 1017.6
20260906170022 26 63 0.0 1.6 0.00 0.00 0.00 70 1017.9
20260906164511 26 63 0.0 0.0 0.00 0.00 0.00 70 1018.1
20260906163052 26 63 0.0 0.0 0.00 0.00 0.00 72 1018.1
20260906161550 26 63 0.0 0.0 0.00 0.00 0.00 73 1018.2
20260906160031 25 63 0.0 0.0 0.00 0.00 0.00 74 1018.2
20260906154530 25 63 0.0 1.6 0.00 0.00 0.00 74 1018.4
20260906153012 25 63 0.0 1.6 0.00 0.00 0.00 75 1018.4
20260906151509 25 64 0.0 0.0 0.00 0.00 0.00 76 1018.6
20260906150106 24 63 0.0 1.6 0.00 0.00 0.00 79 1018.6
20260906144545 23 64 0.0 1.6 0.00 0.00 0.00 79 1018.5
20260906143045 23 63 0.0 1.6 0.00 0.00 0.00 80 1018.4
20260906141524 23 63 0.0 0.0 0.00 0.00 0.00 82 1018.4
20260906140022 22 64 0.0 0.0 0.00 0.00 0.00 85 1018.5
20260906134505 22 63 0.0 0.0 0.00 0.00 0.00 86 1018.5
20260906133001 22 64 0.0 0.0 0.00 0.00 0.00 88 1018.4
20260906131543 21 64 0.0 0.0 0.00 0.00 0.00 90 1018.4
20260906130042 21 64 0.0 0.0 0.00 0.00 0.00 90 1018.4
20260906124524 20 64 0.0 0.0 0.00 0.00 0.00 91 1018.4
20260906123029 20 64 0.0 0.0 0.00 0.00 0.00 92 1018.3
20260906121506 19 63 0.0 0.0 0.00 0.00 0.00 93 1018.3
20260906120005 19 63 0.0 0.0 0.00 0.00 0.00 93 1018.4
20260906114557 19 63 0.0 0.0 0.00 0.00 0.00 93 1018.1
20260906113050 19 63 0.0 0.0 0.00 0.00 0.00 93 1018.0
20260906111530 19 64 0.0 0.0 0.00 0.00 0.00 92 1018.1
20260906110027 20 63 0.0 0.0 0.00 0.00 0.00 92 1018.0
20260906104505 20 63 0.0 0.0 0.00 0.00 0.00 91 1017.7
20260906103002 20 63 0.0 0.0 0.00 0.00 0.00 91 1017.5
20260906101543 20 63 0.0 0.0 0.00 0.00 0.00 90 1017.7
20260906100042 20 63 0.0 0.0 0.00 0.00 0.00 90 1017.7
20260906094520 20 63 0.0 0.0 0.00 0.00 0.00 89 1017.3
20260906093017 21 63 0.0 0.0 0.00 0.00 0.00 89 1017.0
20260906091558 21 63 0.0 0.0 0.00 0.00 0.00 89 1017.0
20260906090057 21 63 0.0 0.0 0.00 0.00 0.00 88 1016.8
20260906084539 21 64 0.0 0.0 0.00 0.00 0.00 88 1016.9
20260906083038 21 63 0.0 0.0 0.00 0.00 0.00 88 1016.8
20260906081519 21 63 0.0 0.0 0.00 0.00 0.00 88 1017.0
20260906080017 21 63 0.0 0.0 0.00 0.00 0.00 87 1016.9
20260906074601 21 63 0.0 0.0 0.00 0.00 0.00 87 1017.0
20260906073056 21 63 0.0 0.0 0.00 0.00 0.00 86 1017.0
20260906071536 21 63 0.0 0.0 0.00 0.00 0.00 85 1017.0
20260906070034 22 63 0.0 0.0 0.00 0.00 0.00 85 1017.3
20260906064514 22 64 0.0 0.0 0.00 0.00 0.00 84 1017.3
20260906063014 22 63 0.0 0.0 0.00 0.00 0.00 84 1017.3
20260906061559 22 63 0.0 0.0 0.00 0.00 0.00 84 1017.3
20260906060055 22 63 0.0 0.0 0.00 0.00 0.00 83 1017.2
20260906054537 22 63 0.0 0.0 0.00 0.00 0.00 83 1017.2
20260906053042 22 63 0.0 0.0 0.00 0.00 0.00 82 1017.2
20260906051524 22 63 0.0 0.0 0.00 0.00 0.00 82 1017.1
20260906050023 22 63 0.0 0.0 0.00 0.00 0.00 82 1017.3
20260906044521 23 63 0.0 0.0 0.00 0.00 0.00 81 1017.4
20260906043017 23 63 0.0 0.0 0.00 0.00 0.00 80 1017.4
20260906041523 23 63 0.0 0.0 0.00 0.00 0.00 79 1017.4
20260906040017 23 63 0.0 0.0 0.00 0.00 0.00 78 1017.4
20260906034515 24 63 0.0 0.0 0.00 0.00 0.00 76 1017.4
20260906033015 24 63 0.0 0.0 0.00 0.00 0.00 76 1017.4
20260906031600 24 63 0.0 0.0 0.00 0.00 0.00 76 1017.7
20260906030057 24 63 0.0 0.0 0.00 0.00 0.00 76 1017.6
20260906024542 25 63 0.0 0.0 0.00 0.00 0.00 75 1017.4
20260906023039 25 63 0.0 0.0 0.00 0.00 0.00 75 1017.4
20260906021520 25 65 0.0 0.0 0.00 0.00 0.00 74 1017.1
20260906020021 25 65 0.0 0.0 0.00 0.00 0.00 74 1016.9
20260906014501 25 66 0.0 0.0 0.00 0.00 0.00 73 1016.4
20260906013101 26 66 0.0 0.0 0.00 0.00 0.00 72 1016.0
20260906011542 26 66 0.0 0.0 0.00 0.00 0.00 70 1015.5
20260906010042 26 66 0.0 0.0 0.00 0.00 0.00 70 1015.4
20260906004525 27 66 0.0 0.0 0.00 0.00 0.00 69 1015.1
20260906003024 27 66 0.0 0.0 0.00 0.00 0.00 69 1015.0
20260906001506 27 66 0.0 1.6 0.00 0.00 0.00 68 1014.6
20260906000006 27 66 0.0 0.0 0.00 0.00 0.00 67 1014.8
20260905234602 27 66 0.0 0.0 0.00 0.00 0.00 65 1014.9
20260905233047 28 66 0.0 0.0 0.00 0.00 0.00 65 1014.9
20260905231535 28 66 0.0 0.0 0.00 0.00 0.00 64 1014.9
20260905230030 28 62 0.0 0.0 0.00 0.00 0.00 63 1015.0
20260905224512 28 62 0.0 1.6 0.00 0.00 0.00 63 1014.6
20260905223012 28 62 0.0 3.2 0.00 0.00 0.00 63 1014.6
20260905221557 28 63 0.0 0.0 0.00 0.00 0.00 62 1014.5
20260905220052 28 62 0.0 1.6 0.00 0.00 0.00 61 1014.7
20260905214535 28 60 0.0 0.0 0.00 0.00 0.00 64 1014.7
20260905213029 28 60 0.0 0.0 0.00 0.00 0.00 65 1015.0
20260905211519 28 60 0.0 3.2 0.00 0.00 0.00 65 1015.3
20260905210009 27 60 0.0 1.6 0.00 0.00 0.00 65 1015.3
20260905204556 27 60 0.0 1.6 0.00 0.00 0.00 68 1015.6
20260905203100 27 60 0.0 0.0 0.00 0.00 0.00 69 1016.0
20260905201554 27 60 0.0 0.0 0.00 0.00 0.00 69 1016.4
20260905200059 26 60 0.0 0.0 0.00 0.00 0.00 71 1016.5
20260905194550 26 60 0.0 1.6 0.00 0.00 0.00 69 1016.7
20260905193104 26 60 0.0 0.0 0.00 0.00 0.00 71 1017.0